Вернуться в каталог

FENGYUN 1C DEB

АктивенPO
NORAD 30059·DEBRIS·🇨🇳 China

Запущен May 10, 1999 с Taiyuan Satellite Launch Center

Loading…

Ближайшие Пролёты (ближайшие 24 часа)

TLE

СвежийSource: Space-Track

Эпоха: Sep 14, 2026, 09:10 UTC

1 30059U 99025PL  26257.38198809  .00000121  00000-0  19570-3 0  9999
2 30059  98.8486 225.2778 0326697 323.6120 191.4621 13.45634164965040

Отслеживайте FENGYUN 1C DEB в реальном времени с AllMySat

Download on the App Store